Location: Ariel
(45.9570°N, 122.5700°W)
Time: 18:16:52
(UTC-07:00)

Altair - Pass Details

Date: 22 July 2019
Orbit: 1501 x 1683 km, 47.2° (Epoch: 20 August)

Event Time Altitude Azimuth Distance (km) Brightness Sun altitude
Rises 12:54:26 0° 233° (SW) 4,650 10.2 63.8°
Reaches altitude 10° 12:57:29 10° 231° (SW) 3,658 9.8 63.9°
Maximum altitude 13:06:31 66° 151° (SSE) 1,618 10.1 64.2°
Drops below altitude 10° 13:15:36 10° 72° (ENE) 3,678 9.6 64.2°
Sets 13:18:40 0° 70° (ENE) 4,676 9.9 64.2°
